Theta_e
317 315 314 311 315 312 312 315 313 314 313 316 314 315 315 314 314 315 315 315 316 317 315 315 318 319 320 320 320 321 321 321 323 326 328 328 327 326 325 322 318 317 319 319
317 316 312 310 313 315 314 315 313 314 313 315 313 313 311 311 312 313 314 315 316 316 316 317 318 319 319 320 319 318 317 317 320 322 324 327 328 328 327 325 325 323 318 316
313 311 312 313 315 317 316 314 313 313 314 313 313 311 309 309 312 313 314 315 316 317 317 317 317 318 319 320 320 318 318 317 318 320 321 324 328 329 329 328 326 324 324 323
315 312 311 312 313 316 316 315 312 314 314 312 311 306 303 307 307 311 313 315 315 317 318 318 319 319 320 319 318 316 317 318 318 318 319 320 322 325 325 327 328 328 327 327
313 312 311 312 313 314 313 314 316 314 314 314 312 313 309 310 310 310 311 314 316 317 318 318 317 316 315 315 315 316 316 317 318 318 318 318 319 320 321 325 327 328 328 328
310 312 311 311 311 313 312 312 314 313 314 316 312 311 307 306 309 311 313 315 316 316 316 315 314 314 315 315 315 316 317 317 317 318 318 317 318 319 321 323 325 327 328 328
312 311 311 312 313 312 312 313 308 315 316 313 308 311 309 308 309 310 311 313 313 313 312 313 314 314 314 315 316 316 317 317 318 319 319 318 319 321 323 324 326 326 327 328
315 314 312 310 313 314 316 314 310 310 312 312 309 313 312 309 310 311 313 312 313 313 313 313 314 313 313 312 313 314 316 318 319 319 320 320 321 324 325 326 326 327 327 327
314 315 310 310 312 313 315 316 310 308 302 306 310 308 310 309 308 311 312 312 312 313 313 312 311 311 312 312 312 312 313 313 313 314 314 317 320 323 325 326 326 327 327 327
309 314 309 311 312 312 313 312 315 312 312 311 311 310 310 311 310 308 309 310 310 309 309 310 310 310 310 310 311 311 312 312 312 312 312 313 313 313 313 313 313 313 313 315
310 310 309 310 313 314 314 314 313 313 314 313 310 309 306 309 309 309 307 308 309 309 309 309 309 308 308 308 308 308 309 309 310 310 310 310 310 310 311 311 312 313 313 313
311 312 308 311 310 311 313 313 313 313 311 313 309 310 307 306 306 309 307 308 309 309 309 309 309 308 308 308 309 309 309 309 309 309 309 309 309 309 310 310 310 310 311 311
311 311 313 312 309 309 313 313 312 312 309 313 314 312 307 307 306 308 308 308 309 309 309 309 309 309 309 309 309 309 309 309 309 310 310 310 310 310 309 309 309 310 310 310
310 310 312 312 309 309 312 312 312 312 314 313 312 311 308 307 306 306 307 308 309 309 308 309 308 307 306 305 305 306 307 308 307 306 306 306 307 308 309 310 309 308 308 309
309 310 309 309 308 309 311 311 312 313 313 313 312 310 310 307 306 307 309 309 308 308 306 305 305 304 305 307 307 306 306 304 303 302 303 303 304 305 306 307 309 310 309 308
308 310 308 308 309 308 308 310 311 312 313 312 311 310 309 308 309 308 308 308 307 306 305 304 306 306 305 305 304 302 302 301 301 301 301 301 302 302 303 305 306 308 309 309
308 309 309 310 308 308 309 309 309 311 311 312 312 311 309 304 307 308 309 308 307 304 303 302 302 301 299 299 299 299 299 299 299 299 299 300 300 301 302 303 304 305 307 309
308 308 309 307 306 311 308 306 307 309 309 310 310 309 309 307 304 305 307 307 304 302 301 299 299 298 298 297 296 297 297 297 297 297 298 298 298 299 299 300 302 303 304 306
304 306 309 309 307 304 308 304 306 308 309 307 308 309 303 300 301 295 300 302 300 298 296 296 295 295 294 294 294 294 294 295 296 296 296 297 297 297 297 298 298 300 302 303
304 306 306 309 308 309 306 297 290 303 310 291 291 299 301 302 307 297 293 294 293 292 291 291 291 291 291 291 292 293 294 294 294 295 295 295 295 295 295 296 296 297 298 299
304 305 306 305 307 305 290 287 290 311 303 285 285 288 298 302 292 290 290 290 290 289 289 288 289 290 290 290 291 292 293 293 293 293 293 293 294 294 294 294 294 295 295 296
306 306 306 305 306 306 283 289 299 290 283 282 281 283 286 285 284 285 286 285 285 286 286 287 287 287 287 288 289 290 290 291 291 292 292 292 293 293 293 293 294 294 294 294
303 291 297 288 292 281 281 281 281 282 280 279 279 279 281 281 280 280 281 281 281 282 283 284 285 285 285 285 287 288 288 290 290 291 291 292 292 292 292 292 293 293 293 293
287 280 290 288 281 279 279 278 277 277 277 276 276 276 277 277 277 277 278 279 279 280 282 284 285 284 284 285 285 286 287 288 289 290 290 290 291 291 291 291 291 291 291 291
276 278 281 282 280 279 276 275 275 274 274 274 274 274 275 275 275 276 277 277 277 278 279 280 281 282 283 284 284 284 285 286 287 287 288 288 289 289 290 290 289 289 289 288
274 273 278 280 275 277 274 272 272 272 271 272 273 273 274 275 274 275 275 275 275 276 277 279 280 281 282 283 283 282 282 282 284 285 286 285 286 287 288 288 289 289 288 288
Wind_Speed
13 7 17 19 13 1 6 5 7 2 3 3 7 9 20 19 17 24 34 31 27 27 28 27 23 23 22 21 21 20 21 21 24 29 31 34 35 35 36 36 35 35 35 34
7 24 9 9 9 7 3 5 5 3 3 2 5 11 13 14 15 25 29 26 27 27 26 25 25 25 27 23 24 24 24 27 28 28 30 34 35 36 35 36 35 36 37 37
19 4 19 11 12 14 15 11 3 1 1 1 5 14 9 8 16 16 22 26 27 25 25 25 26 25 27 28 27 29 31 29 29 28 31 34 37 39 38 37 37 36 37 38
16 23 9 5 15 16 15 8 6 5 3 5 2 11 9 2 7 6 18 24 27 23 24 22 21 21 24 28 31 27 26 25 27 29 32 33 35 39 37 37 38 38 37 36
15 12 18 9 17 15 7 8 14 5 5 2 5 3 4 2 5 6 12 20 19 20 22 23 24 24 23 24 25 24 22 21 23 25 28 32 36 38 36 40 39 38 38 38
26 8 15 14 10 18 7 7 5 3 4 9 18 9 23 9 8 5 9 20 21 20 21 23 24 23 23 24 25 21 18 18 20 24 28 31 33 33 36 38 40 39 40 40
16 8 2 10 7 6 9 11 3 6 8 14 9 8 22 1 3 7 7 15 18 22 22 22 23 20 17 18 18 20 22 22 20 21 21 25 27 28 33 35 38 40 41 42
13 11 19 5 8 9 20 16 6 9 6 9 7 11 10 8 19 36 29 39 35 25 20 17 9 5 8 8 7 1 5 11 14 16 17 18 19 21 24 27 31 34 37 39
10 11 6 6 7 16 12 16 8 5 2 3 5 7 8 8 7 13 18 19 17 15 6 15 14 12 10 7 5 3 4 4 5 6 8 12 14 17 20 23 25 30 32 35
5 7 7 19 9 13 13 10 7 7 7 7 4 4 9 2 7 6 7 8 12 16 17 17 13 10 8 5 4 3 4 5 6 6 7 8 9 11 14 17 20 24 29 33
3 3 3 13 17 19 6 10 7 3 4 6 3 7 8 13 7 7 8 15 21 18 17 15 11 8 6 5 5 6 6 7 7 9 10 10 11 14 16 18 19 22 23 24
9 4 5 13 15 20 22 19 17 7 9 6 1 9 3 7 7 12 17 20 19 18 14 11 10 8 5 3 3 5 7 8 11 12 11 11 11 12 15 19 21 22 23 24
15 5 8 3 2 1 14 18 17 17 2 13 9 9 5 5 6 15 22 23 20 18 15 11 7 5 3 3 2 3 6 8 8 8 11 13 15 15 15 16 17 20 24 24
24 14 7 14 2 7 10 20 18 20 14 13 14 17 13 4 8 11 19 23 20 16 13 11 7 3 1 3 8 9 12 16 14 13 12 12 14 16 18 19 20 21 21 24
17 22 24 23 9 4 11 22 26 23 26 17 21 18 24 13 11 20 29 24 20 17 13 9 7 3 2 5 7 10 11 12 14 15 17 19 19 19 21 22 22 23 24 25
17 15 20 21 23 19 6 18 20 25 24 25 20 12 21 16 21 20 28 26 21 16 14 11 7 5 6 5 6 9 11 14 15 16 17 19 21 21 24 25 25 25 26 26
15 10 15 17 28 25 24 26 21 19 22 25 22 27 15 7 14 23 27 25 25 21 16 11 7 5 5 6 8 10 12 14 15 15 17 18 20 21 22 25 27 28 29 29
11 17 10 10 4 15 12 11 14 20 18 28 20 16 15 11 12 12 19 26 27 21 15 11 8 7 7 7 8 10 13 15 17 19 20 21 22 22 22 24 26 28 30 31
6 4 7 13 14 4 1 7 14 17 25 16 19 28 9 21 18 9 14 24 21 16 12 9 7 6 6 6 8 10 11 12 14 15 16 18 21 23 24 26 27 28 30 32
7 7 7 4 15 15 12 6 7 0 15 7 9 7 12 20 9 5 15 17 15 11 8 5 4 4 5 7 10 12 14 16 17 17 18 19 22 24 25 26 28 29 30 32
8 4 13 16 10 5 2 13 9 11 4 9 11 14 6 6 7 23 18 14 11 8 5 2 2 4 6 9 11 13 15 17 18 18 19 21 23 25 26 26 27 29 31 33
10 7 7 7 7 12 16 5 3 5 13 11 15 15 18 18 17 16 13 9 6 4 2 1 4 5 7 11 12 14 16 18 20 21 22 22 23 25 28 29 29 29 31 32
1 5 1 4 3 8 14 20 14 14 13 16 15 13 14 15 13 10 9 5 3 2 3 5 7 8 10 14 16 18 20 22 23 23 25 26 26 27 28 31 33 33 32 33
4 12 3 5 7 9 18 17 17 15 17 14 14 13 14 13 10 9 7 7 7 8 9 10 10 11 14 16 18 20 22 25 27 28 28 29 30 31 32 33 34 35 34 36
5 10 4 3 8 11 17 18 14 14 14 14 12 13 15 11 11 11 9 10 12 14 14 14 15 16 18 19 21 23 25 27 29 30 32 33 34 35 37 36 37 38 38 36
9 5 3 2 9 6 9 10 12 14 15 13 11 11 13 13 13 12 12 14 16 16 17 17 18 20 20 20 22 25 26 28 30 32 34 36 37 38 39 41 44 41 42 39
Wind_Direction
179 199 215 199 204 33 157 183 198 232 235 196 238 247 266 264 256 260 264 266 265 263 262 259 251 260 263 266 269 273 280 283 272 265 263 260 262 263 263 262 261 260 258 259
191 227 199 160 187 208 185 207 212 281 277 190 318 273 254 260 248 247 258 260 261 264 264 259 255 254 261 265 270 271 280 279 275 272 270 265 266 268 269 268 268 266 264 261
206 269 176 170 191 200 220 215 164 146 10 314 355 289 241 245 244 246 245 253 254 256 257 259 254 255 257 264 272 278 281 276 269 270 273 268 264 263 266 267 267 267 266 266
222 220 164 174 197 188 221 176 148 175 97 245 123 274 241 182 243 234 249 249 253 252 252 252 253 255 257 267 275 278 278 274 265 261 265 268 268 267 272 273 275 275 276 275
213 174 202 204 212 187 214 143 200 163 165 32 234 286 256 49 285 271 268 259 253 248 246 256 264 273 276 277 283 284 272 268 268 266 265 266 266 270 275 273 273 275 277 278
216 194 183 204 169 184 138 79 77 130 157 240 235 196 274 245 225 214 230 251 254 257 262 267 275 278 278 281 283 277 265 269 266 267 266 267 269 268 270 273 276 277 277 279
216 202 224 162 149 153 163 145 160 214 209 234 167 173 243 168 231 176 228 263 278 283 277 276 283 281 279 275 276 272 269 270 263 265 269 264 270 273 273 275 279 281 282 282
196 202 207 185 184 185 195 184 172 198 202 234 146 218 241 218 239 253 259 263 269 277 282 277 269 163 138 114 107 129 265 260 260 264 267 269 271 274 277 278 281 284 286 288
208 222 156 197 183 166 187 210 182 105 51 70 211 288 297 243 228 248 239 251 273 283 180 135 132 128 118 113 102 74 39 17 329 316 304 284 276 275 277 280 280 281 281 283
220 224 187 197 165 204 183 160 190 206 197 224 237 259 231 204 243 249 216 180 153 139 134 129 123 112 97 79 54 10 333 328 336 332 329 328 320 306 299 296 296 295 292 288
190 225 209 151 200 193 160 191 209 171 197 206 227 246 201 233 211 196 157 159 156 149 136 127 111 91 76 65 54 35 11 343 318 322 324 312 302 297 293 290 291 293 294 298
197 189 197 203 201 204 200 203 196 192 213 217 207 242 239 233 212 176 173 168 155 148 140 133 126 121 112 74 21 26 24 19 10 352 349 348 338 320 303 296 292 288 289 291
186 215 187 170 293 305 217 212 206 223 56 203 215 240 216 193 160 189 175 172 165 164 161 154 155 154 119 61 15 325 327 336 337 335 318 330 336 338 337 328 317 306 297 292
195 230 232 229 229 137 199 214 212 211 223 223 221 242 244 235 203 180 183 179 179 174 168 172 174 203 262 352 357 357 350 338 343 340 338 331 321 322 324 329 332 327 316 305
209 227 234 240 248 210 206 216 215 213 219 217 226 219 245 216 195 186 187 187 178 176 176 176 179 191 318 306 298 317 320 324 331 334 335 335 338 337 332 325 322 321 326 322
211 231 228 239 235 230 216 222 221 218 228 232 240 237 237 231 202 195 195 188 186 182 184 190 196 207 251 275 278 297 309 313 318 326 329 329 330 332 329 329 332 327 322 322
209 219 230 238 234 234 238 229 218 226 227 226 224 230 226 180 191 202 203 201 191 180 184 183 190 212 250 277 301 311 314 315 318 323 325 326 327 329 328 331 332 331 330 328
196 209 225 224 198 222 234 258 211 214 213 233 232 243 229 202 170 191 210 201 177 177 181 184 200 227 256 286 301 304 305 310 320 326 331 330 329 331 331 328 328 329 332 331
170 148 246 237 232 262 238 202 204 197 234 223 216 236 126 136 123 72 142 166 165 174 180 191 212 238 272 296 303 305 312 322 328 334 339 339 338 340 340 340 339 335 329 329
171 234 204 283 224 227 245 119 13 316 249 23 343 329 166 151 180 166 162 160 161 168 178 190 220 265 297 306 316 320 322 326 329 334 336 336 335 337 336 335 335 336 335 334
191 203 224 242 247 264 354 315 316 163 241 44 39 359 224 163 73 139 158 156 165 173 189 218 285 300 314 319 324 321 319 322 328 331 332 333 333 332 332 331 332 331 331 331
172 178 202 216 228 240 343 341 229 56 60 53 56 44 73 93 104 121 134 139 148 149 176 325 337 330 331 330 325 323 321 322 325 326 328 328 329 329 328 328 329 330 330 331
129 349 50 24 35 64 43 71 59 78 80 54 57 53 73 81 80 90 98 94 75 47 9 354 347 345 339 337 330 325 322 321 321 322 322 322 323 324 325 324 325 326 328 329
46 11 75 219 68 57 57 59 62 63 63 62 54 58 72 69 64 59 51 31 15 0 354 350 343 337 335 333 330 325 322 320 319 318 319 318 317 318 319 320 321 320 322 323
338 329 5 98 110 101 55 42 46 49 53 63 57 54 61 57 40 35 23 10 1 354 351 348 342 337 334 331 328 325 321 316 315 316 317 316 315 315 314 314 315 314 314 315
4 1 351 54 14 63 68 45 45 47 38 44 47 44 47 40 27 20 10 2 356 350 346 341 339 332 327 325 324 321 321 320 318 316 316 317 316 315 315 314 310 309 310 309